Weather History for Lakeland Region, FL

Change the Weather History Date:

Thursday, June 27, 2013

  Actual Average Record
Temperature  
Mean Temperature 80 °F -  
Max Temperature 91 °F 88 °F 97 °F (1994)
Min Temperature 69 °F 71 °F 68 °F (2000)
Cooling Degree Days 15    
Growing Degree Days 30 (Base 50)    
Moisture  
Dew Point 70 °F    
Average Humidity 83    
Maximum Humidity 100    
Minimum Humidity 41    
Precipitation  
Precipitation 0.00 in - - ()
Sea Level Pressure  
Sea Level Pressure 30.03 in    
Wind  
Wind Speed 2 mph (West)    
Max Wind Speed 12 mph    
Max Gust Speed -    
Visibility 12 miles    
Events      
Averages and records for this station are not official NWS values.
T = Trace of Precipitation, MM = Missing Value Source: NWS Daily Summary

Daily Weather History Graph

Daily Weather History Graph

Search for Another Location

Airport:

Trip Planner

Search our weather history database for the weather conditions in past years. The results will help you decide how hot, cold, wet, or windy it might be!

Date:

Astronomy

Jun. 27, 2013 Rise Set
Actual Time 6:34 AM EDT 8:28 PM EDT
Civil Twilight 6:07 AM EDT 8:55 PM EDT
Nautical Twilight 5:35 AM EDT 9:27 PM EDT
Astronomical Twilight 5:00 AM EDT 10:01 PM EDT
Moon 11:53 PM EDT (6/27) 11:08 AM EDT (6/27)
Length of Visible Light 14h 47m
Length of Day
13h 54m
Waning Gibbous, 76% of the Moon is Illuminated
Jun 27
Waning Gibbous
Jun 30
Last Quarter
Jul 8
New
Jul 15
First Quarter
Jul 22
Full

Hourly Weather History & Observations

Time (EDT) Temp. Heat Index Dew Point Humidity Pressure Visibility Wind Dir Wind Speed Gust Speed Precip Events Conditions
12:15 AM 71.6 °F - 69.8 °F 94% 30.09 in 10.0 mi North 6.9 mph - N/A   Clear
12:35 AM 71.6 °F - 69.8 °F 94% 30.08 in 10.0 mi Calm Calm - N/A   Clear
12:55 AM 71.6 °F - 69.8 °F 94% 30.08 in 10.0 mi Calm Calm - N/A   Clear
1:15 AM 71.6 °F - 69.8 °F 94% 30.07 in 10.0 mi Calm Calm - N/A   Clear
1:35 AM 71.6 °F - 69.8 °F 94% 30.06 in 10.0 mi Calm Calm - N/A   Clear
2:15 AM 69.8 °F - 69.8 °F 100% 30.03 in 10.0 mi SW 3.5 mph - N/A   Clear
2:35 AM 69.8 °F - 69.8 °F 100% 30.03 in 10.0 mi SW 3.5 mph - N/A   Clear
2:55 AM 69.8 °F - 69.8 °F 100% 30.03 in 10.0 mi SSW 3.5 mph - N/A   Clear
3:15 AM 69.8 °F - 69.8 °F 100% 30.03 in 10.0 mi North - - N/A   Clear
3:35 AM 69.8 °F - 69.8 °F 100% 30.03 in 10.0 mi Calm Calm - N/A   Clear
3:55 AM 69.8 °F - 69.8 °F 100% 30.03 in 10.0 mi Calm Calm - N/A   Clear
4:15 AM 69.8 °F - 69.8 °F 100% 30.04 in 10.0 mi Calm Calm - N/A   Clear
4:35 AM 69.8 °F - 69.8 °F 100% 30.03 in 10.0 mi Calm Calm - N/A   Clear
4:55 AM 71.6 °F - 69.8 °F 94% 30.04 in 10.0 mi Calm Calm - N/A   Clear
5:15 AM 71.6 °F - 69.8 °F 94% 30.05 in 10.0 mi Calm Calm - N/A   Clear
5:35 AM 71.6 °F - 69.8 °F 94% 30.05 in 10.0 mi Calm Calm - N/A   Clear
5:55 AM 71.6 °F - 69.8 °F 94% 30.05 in 10.0 mi Calm Calm - N/A   Clear
6:15 AM 69.8 °F - 69.8 °F 100% 30.05 in 10.0 mi SSW 3.5 mph - N/A   Clear
6:35 AM 69.8 °F - 69.8 °F 100% 30.05 in 10.0 mi Calm Calm - N/A   Clear
6:52 AM 71.6 °F - 71.6 °F 100% 30.05 in 15.0 mi Calm Calm - N/A   Partly Cloudy
7:55 AM 73.4 °F - 73.4 °F 100% 30.06 in 15.0 mi Calm Calm - N/A   Clear
8:50 AM 78.8 °F - 71.6 °F 78% 30.07 in 15.0 mi Calm Calm - N/A   Clear
9:50 AM 82.4 °F 87.2 °F 71.6 °F 70% 30.06 in 15.0 mi Calm Calm - N/A   Clear
10:50 AM 84.2 °F 88.4 °F 69.8 °F 62% 30.06 in 15.0 mi West 3.5 mph - N/A   Partly Cloudy
11:57 AM 86.0 °F 89.4 °F 68.0 °F 55% 30.05 in 20.0 mi Calm Calm - N/A   Scattered Clouds
12:55 PM 87.8 °F 91.4 °F 68.0 °F 52% 30.04 in 20.0 mi Calm Calm - N/A   Scattered Clouds
1:52 PM 89.6 °F 92.2 °F 66.2 °F 46% 30.03 in 15.0 mi Calm Calm - N/A   Scattered Clouds
2:50 PM 91.4 °F 93.2 °F 64.4 °F 41% 30.01 in 15.0 mi Calm Calm - N/A   Mostly Cloudy
3:50 PM 84.2 °F 89.6 °F 71.6 °F 66% 30.00 in 15.0 mi NW 11.5 mph - N/A   Mostly Cloudy
4:50 PM 86.0 °F 91.8 °F 71.6 °F 62% 29.97 in 15.0 mi WNW 5.8 mph - N/A   Mostly Cloudy
5:50 PM 89.6 °F 94.7 °F 69.8 °F 52% 29.97 in 15.0 mi Calm Calm - N/A   Mostly Cloudy
6:50 PM 87.8 °F 93.8 °F 71.6 °F 58% 29.97 in 15.0 mi North 4.6 mph - N/A   Mostly Cloudy
7:50 PM 84.2 °F 89.6 °F 71.6 °F 66% 29.97 in 15.0 mi NNW 5.8 mph - N/A   Mostly Cloudy
8:50 PM 80.6 °F 83.9 °F 69.8 °F 70% 29.97 in 10.0 mi SSW 6.9 mph - N/A   Mostly Cloudy
9:50 PM 78.8 °F - 69.8 °F 74% 29.99 in 10.0 mi SSE 5.8 mph - N/A   Scattered Clouds
10:55 PM 77.0 °F - 69.8 °F 78% 29.98 in - Calm Calm - N/A   Clear
11:15 PM 77.0 °F - 69.8 °F 78% 29.99 in 10.0 mi Calm Calm - N/A   Clear
11:35 PM 77.0 °F - 71.6 °F 83% 29.99 in 10.0 mi Calm Calm - N/A   Clear
11:55 PM 77.0 °F - 71.6 °F 83% 30.00 in 10.0 mi Calm Calm - N/A   Clear